Regional Weather Roundup
Issued by NWS Memphis, TN

Home | Current Version | Previous Version | Text Only | Print | Product List | Glossary On
Versions: 1 2 3 4 5 6 7 8 9 10 11 12 13 14 15 16 17 18 19 20 21 22 23 24 25 26 27 28 29 30 31 32 33 34 35 36 37 38 39 40 41 42 43 44 45 46 47 48 49 50
000
ASUS44 KMEG 231510
RWRMEG
MEMPHIS CWA HOURLY WEATHER ROUNDUP
NATIONAL WEATHER SERVICE MEMPHIS TN
1000 AM CDT SUN APR 23 2017

...WEST TENNESSEE...

CITY           SKY/WX    TMP DP  RH WIND       PRES   REMARKS
MEMPHIS INTL   DRIZZLE   54  47  77 N13G20    29.95S
NWS MEMPHIS      N/A     51 N/A N/A MISG        N/A
JACKSON        LGT RAIN  49  47  93 N14       29.92R FOG
SOMERVILLE     CLOUDY    52  48  87 N10G20    29.92S
BOLIVAR        CLOUDY    50  46  87 NW8G15    29.92R
LEXINGTON      PTSUNNY   50  48  93 N9        29.88S FOG
SAVANNAH       PTSUNNY   50  50 100 N12       29.87S FOG
DYERSBURG      LGT RAIN  48  45  89 N12       29.97R
UNION CITY     CLOUDY    46  45  93 N15G22    29.94S FOG
PARIS          CLOUDY    46  41  81 N12       29.92R
HUNTINGDON     CLOUDY    50  46  87 VRB6G15   29.90S


...EASTERN ARKANSAS...

CITY           SKY/WX    TMP DP  RH WIND       PRES   REMARKS
JONESBORO      SUNNY     56  43  61 N14G20    29.99S
WEST MEMPHIS   CLOUDY    52  45  77 N13       29.97R
BATESVILLE     SUNNY     55  37  50 N10G16    30.05S
NEWPORT        PTSUNNY   53  43  68 N17       30.02
WALNUT RIDGE   MOSUNNY   55  41  58 N16G24    30.01F
BLYTHEVILLE    CLOUDY    51  45  79 N15G24    29.97S
SEARCY         SUNNY     57  43  59 N16       30.04R
STUTTGART      SUNNY     57  39  51 N17       30.02S
PINE BLUFF     SUNNY     57  46  66 N14G22    30.03S
MONTICELLO     PTSUNNY   56  45  66 N6G17     30.01S


...NORTH MISSISSIPPI...

CITY           SKY/WX    TMP DP  RH WIND       PRES   REMARKS
TUPELO         CLOUDY    53  48  83 NW9       29.89S
OXFORD         CLOUDY    48  46  93 NW13G18   29.95R
OLIVE BRANCH   CLOUDY   N/A N/A N/A N8G20     29.93S
TUNICA         CLOUDY    52  45  76 N16       29.98S
CORINTH        DRIZZLE   52  48  87 NW12      29.89S
GREENWOOD      CLOUDY    53  51  93 NW6       29.96S
COLUMBUS       CLOUDY    57  55  94 NW10      29.88S
STARKVILLE     LGT RAIN  54  52  94 W5        29.92S
GOLDEN TRIANGL CLOUDY    57  48  72 NW12      29.86R


...SOUTHEAST MISSOURI...

CITY           SKY/WX    TMP DP  RH WIND       PRES   REMARKS
KENNETT        MOSUNNY   55  43  62 N18G25    29.97R
MALDEN         MOSUNNY   54  43  66 N15       30.01R
WEST PLAINS    SUNNY     56  38  50 N17G26    30.08S
POPLAR BLUFF   PTSUNNY   54  41  61 N16       30.01S
CAPE GIRARDEAU CLOUDY    53  41  63 N15G22    30.01S


...NORTHWEST ALABAMA...

CITY           SKY/WX    TMP DP  RH WIND       PRES   REMARKS
MUSCLE SHOALS  LGT RAIN  54  51  90 NW7       29.87R FOG


...MIDDLE TENNESSEE...

CITY           SKY/WX    TMP DP  RH WIND       PRES   REMARKS
NASHVILLE      DRIZZLE   52  50  93 N9        29.85R
CLARKSVILLE    CLOUDY    48  44  86 N12       29.90R THUNDER
COLUMBIA       CLOUDY   N/A N/A N/A VRB5      29.83S VSB 1


...WESTERN KENTUCKY...

CITY           SKY/WX    TMP DP  RH WIND       PRES   REMARKS
PADUCAH        CLOUDY    56  42  59 N17G28    29.96S
FORT CAMPBELL  DRIZZLE   47  46  94 N10       29.90R


...CENTRAL ARKANSAS...

CITY           SKY/WX    TMP DP  RH WIND       PRES   REMARKS
LITTLE ROCK    MOSUNNY   59  45  59 N12       30.04S


SKY/WX REPORTED AS FAIR MEANS FEW OR NO CLOUDS BELOW
12 THOUSAND FEET.





USA.gov is the U.S. government's official web portal to all federal, state and local government web resources and services.